| time (UTC) | temp F | wind direction | speed knots | gust knots | rain 1hr in | rain 24hr in | rain mn in | humidity % | barometer mb |
| 20260901030549 | 72 | 254 | 7.0 | 21.7 | 0.00 | 0.00 | 0.00 | 43 | 1016.0 |
| 20260901030048 | 72 | 243 | 7.8 | 21.7 | 0.00 | 0.00 | 0.00 | 43 | 1016.2 |
| 20260901025554 | 71 | 329 | 9.6 | 19.1 | 0.00 | 0.00 | 0.00 | 44 | 1016.4 |
| 20260901025548 | 71 | 320 | 8.7 | 16.5 | 0.00 | 0.00 | 0.00 | 43 | 1016.1 |
| 20260901024548 | 71 | 0 | 10.4 | 26.1 | 0.00 | 0.00 | 0.00 | 44 | 1016.5 |
| 20260901024047 | 71 | 311 | 9.6 | 26.1 | 0.00 | 0.00 | 0.00 | 43 | 1016.7 |
| 20260901023550 | 71 | 341 | 7.8 | 20.0 | 0.00 | 0.00 | 0.00 | 44 | 1016.7 |
| 20260901023048 | 71 | 325 | 7.8 | 20.0 | 0.00 | 0.00 | 0.00 | 44 | 1016.8 |
| 20260901022549 | 71 | 326 | 8.7 | 17.4 | 0.00 | 0.00 | 0.00 | 44 | 1016.9 |
| 20260901022047 | 71 | 12 | 8.7 | 17.4 | 0.00 | 0.00 | 0.00 | 45 | 1017.0 |
| 20260901021549 | 71 | 1 | 7.8 | 19.1 | 0.00 | 0.00 | 0.00 | 47 | 1017.1 |
| 20260901021048 | 71 | 351 | 6.1 | 19.1 | 0.00 | 0.00 | 0.00 | 47 | 1017.1 |
| 20260901020548 | 70 | 305 | 6.1 | 16.5 | 0.00 | 0.00 | 0.00 | 50 | 1017.2 |
| 20260901020048 | 70 | 338 | 7.0 | 13.9 | 0.00 | 0.00 | 0.00 | 50 | 1017.3 |
| 20260901015547 | 69 | 0 | 7.0 | 13.0 | 0.00 | 0.00 | 0.00 | 51 | 1017.6 |
| 20260901015048 | 69 | 15 | 7.0 | 14.8 | 0.00 | 0.00 | 0.00 | 52 | 1017.6 |
| 20260901014549 | 69 | 358 | 7.0 | 14.8 | 0.00 | 0.00 | 0.00 | 52 | 1017.7 |
| 20260901014045 | 69 | 358 | 7.0 | 16.5 | 0.00 | 0.00 | 0.00 | 52 | 1017.7 |
| 20260901013546 | 69 | 11 | 8.7 | 21.7 | 0.00 | 0.00 | 0.00 | 52 | 1017.8 |
| 20260901013045 | 68 | 350 | 8.7 | 24.3 | 0.00 | 0.00 | 0.00 | 52 | 1017.6 |
| 20260901012553 | 68 | 329 | 7.0 | 17.4 | 0.00 | 0.00 | 0.00 | 54 | 1017.7 |
| 20260901012547 | 68 | 19 | 7.8 | 24.3 | 0.00 | 0.00 | 0.00 | 53 | 1017.7 |
| 20260901011547 | 67 | 354 | 7.0 | 17.4 | 0.00 | 0.00 | 0.00 | 55 | 1017.8 |
| 20260901011046 | 67 | 352 | 8.7 | 19.1 | 0.00 | 0.00 | 0.00 | 55 | 1017.9 |
| 20260901010545 | 66 | 27 | 8.7 | 19.1 | 0.00 | 0.00 | 0.00 | 56 | 1017.9 |
| 20260901010047 | 66 | 20 | 8.7 | 17.4 | 0.00 | 0.00 | 0.00 | 56 | 1017.9 |
| 20260901005543 | 66 | 17 | 9.6 | 23.5 | 0.00 | 0.00 | 0.00 | 58 | 1018.0 |
| 20260901005044 | 65 | 338 | 9.6 | 23.5 | 0.00 | 0.00 | 0.00 | 58 | 1018.2 |
| 20260901004541 | 65 | 18 | 8.7 | 16.5 | 0.00 | 0.00 | 0.00 | 59 | 1018.1 |
| 20260901004043 | 65 | 348 | 9.6 | 18.2 | 0.00 | 0.00 | 0.00 | 61 | 1018.6 |
| 20260901003543 | 65 | 12 | 8.7 | 18.2 | 0.00 | 0.00 | 0.00 | 61 | 1018.7 |
| 20260901003039 | 65 | 23 | 7.8 | 21.7 | 0.00 | 0.00 | 0.00 | 62 | 1018.9 |
| 20260901002547 | 64 | 48 | 9.6 | 21.7 | 0.00 | 0.00 | 0.00 | 62 | 1019.2 |
| 20260901002541 | 65 | 299 | 9.6 | 21.7 | 0.00 | 0.00 | 0.00 | 62 | 1019.0 |
| 20260901001539 | 64 | 299 | 9.6 | 21.7 | 0.00 | 0.00 | 0.00 | 62 | 1019.3 |
| 20260901001046 | 64 | 358 | 9.6 | 20.0 | 0.00 | 0.00 | 0.00 | 64 | 1019.3 |
| 20260901001041 | 64 | 355 | 10.4 | 20.9 | 0.00 | 0.00 | 0.00 | 63 | 1019.2 |
| 20260901000537 | 64 | 19 | 10.4 | 20.0 | 0.00 | 0.00 | 0.00 | 63 | 1019.4 |
| 20260831235539 | 64 | 2 | 8.7 | 18.2 | 0.00 | 0.00 | 0.00 | 65 | 1019.4 |
| 20260831235037 | 63 | 295 | 9.6 | 20.0 | 0.00 | 0.00 | 0.00 | 66 | 1019.5 |
| 20260831234537 | 63 | 4 | 9.6 | 20.0 | 0.00 | 0.00 | 0.00 | 66 | 1019.5 |
| 20260831234037 | 63 | 11 | 8.7 | 20.0 | 0.00 | 0.00 | 0.00 | 67 | 1019.6 |
| 20260831233537 | 63 | 331 | 7.8 | 18.2 | 0.00 | 0.00 | 0.00 | 67 | 1019.7 |
| 20260831233046 | 62 | 337 | 8.7 | 20.0 | 0.00 | 0.00 | 0.00 | 68 | 1020.2 |
| 20260831233039 | 62 | 25 | 8.7 | 20.0 | 0.00 | 0.00 | 0.00 | 68 | 1019.9 |
| 20260831232042 | 62 | 35 | 7.0 | 19.1 | 0.00 | 0.00 | 0.00 | 69 | 1020.7 |
| 20260831232037 | 62 | 347 | 7.8 | 19.1 | 0.00 | 0.00 | 0.00 | 69 | 1020.4 |
| 20260831231037 | 62 | 2 | 6.1 | 15.6 | 0.00 | 0.00 | 0.00 | 71 | 1020.8 |
| 20260831230538 | 62 | 16 | 7.0 | 15.6 | 0.00 | 0.00 | 0.00 | 71 | 1020.9 |
| 20260831230038 | 61 | 8 | 7.0 | 14.8 | 0.00 | 0.00 | 0.00 | 71 | 1021.0 |
| 20260831225538 | 61 | 3 | 6.1 | 14.8 | 0.00 | 0.00 | 0.00 | 72 | 1021.1 |
| 20260831225043 | 61 | 336 | 5.2 | 13.9 | 0.00 | 0.00 | 0.00 | 74 | 1021.2 |
| 20260831225037 | 61 | 0 | 6.1 | 14.8 | 0.00 | 0.00 | 0.00 | 73 | 1021.1 |
| 20260831224039 | 60 | 15 | 6.1 | 12.2 | 0.00 | 0.00 | 0.00 | 75 | 1021.3 |
| 20260831223542 | 60 | 339 | 7.0 | 17.4 | 0.00 | 0.00 | 0.00 | 76 | 1021.5 |
| 20260831223536 | 60 | 20 | 7.0 | 17.4 | 0.00 | 0.00 | 0.00 | 75 | 1021.4 |
| 20260831222537 | 60 | 36 | 6.1 | 16.5 | 0.00 | 0.00 | 0.00 | 77 | 1021.5 |
| 20260831222038 | 60 | 316 | 5.2 | 13.0 | 0.00 | 0.00 | 0.00 | 78 | 1021.5 |
| 20260831221544 | 59 | 339 | 6.1 | 13.9 | 0.00 | 0.00 | 0.00 | 79 | 1021.7 |
| 20260831221538 | 59 | 335 | 6.1 | 13.0 | 0.00 | 0.00 | 0.00 | 78 | 1021.5 |
| 20260831221208 | 59 | 338 | 4.3 | 13.9 | 0.00 | 0.00 | 0.00 | 80 | 1021.9 |
| 20260831220036 | 58 | 32 | 4.3 | 10.4 | 0.00 | 0.00 | 0.00 | 81 | 1021.8 |
| 20260831215539 | 58 | 335 | 5.2 | 12.2 | 0.00 | 0.00 | 0.00 | 81 | 1021.8 |
| 20260831215037 | 58 | 27 | 5.2 | 12.2 | 0.00 | 0.00 | 0.00 | 82 | 1021.7 |
| 20260831214536 | 58 | 301 | 6.1 | 16.5 | 0.00 | 0.00 | 0.00 | 83 | 1021.6 |
| 20260831214034 | 58 | 342 | 7.0 | 16.5 | 0.00 | 0.00 | 0.00 | 83 | 1021.6 |
| 20260831213537 | 58 | 355 | 6.1 | 13.9 | 0.00 | 0.00 | 0.00 | 84 | 1021.6 |
| 20260831213035 | 57 | 346 | 6.1 | 13.9 | 0.00 | 0.00 | 0.00 | 84 | 1021.6 |
| 20260831212540 | 57 | 326 | 5.2 | 10.4 | 0.00 | 0.00 | 0.00 | 85 | 1021.6 |
| 20260831212535 | 57 | 345 | 6.1 | 13.0 | 0.00 | 0.00 | 0.00 | 85 | 1021.6 |
| 20260831211535 | 57 | 0 | 5.2 | 10.4 | 0.00 | 0.00 | 0.00 | 85 | 1021.6 |
| 20260831211034 | 57 | 8 | 4.3 | 10.4 | 0.00 | 0.00 | 0.00 | 85 | 1021.6 |
| 20260831210037 | 56 | 0 | 4.3 | 11.3 | 0.00 | 0.00 | 0.00 | 86 | 1021.6 |
| 20260831205532 | 56 | 322 | 3.5 | 10.4 | 0.00 | 0.00 | 0.00 | 86 | 1021.7 |
| 20260831205036 | 56 | 345 | 3.5 | 12.2 | 0.00 | 0.00 | 0.00 | 85 | 1021.7 |
| 20260831204533 | 56 | 318 | 3.5 | 12.2 | 0.00 | 0.00 | 0.00 | 86 | 1021.6 |
| 20260831204039 | 57 | 16 | 4.3 | 9.6 | 0.00 | 0.00 | 0.00 | 86 | 1021.6 |
| 20260831204033 | 57 | 2 | 3.5 | 10.4 | 0.00 | 0.00 | 0.00 | 86 | 1021.6 |
| 20260831203030 | 57 | 345 | 4.3 | 9.6 | 0.00 | 0.00 | 0.00 | 86 | 1021.7 |
| 20260831202532 | 57 | 343 | 3.5 | 7.8 | 0.00 | 0.00 | 0.00 | 85 | 1021.7 |
| 20260831202031 | 57 | 352 | 3.5 | 7.8 | 0.00 | 0.00 | 0.00 | 85 | 1021.8 |
| 20260831201531 | 57 | 346 | 2.6 | 7.8 | 0.00 | 0.00 | 0.00 | 85 | 1021.9 |
| 20260831201030 | 57 | 2 | 3.5 | 7.8 | 0.00 | 0.00 | 0.00 | 85 | 1021.9 |
| 20260831200531 | 57 | 353 | 3.5 | 8.7 | 0.00 | 0.00 | 0.00 | 85 | 1021.9 |
| 20260831200030 | 57 | 4 | 3.5 | 8.7 | 0.00 | 0.00 | 0.00 | 84 | 1021.8 |
| 20260831195533 | 58 | 5 | 4.3 | 10.4 | 0.00 | 0.00 | 0.00 | 84 | 1021.8 |
| 20260831195032 | 58 | 19 | 5.2 | 12.2 | 0.00 | 0.00 | 0.00 | 84 | 1021.9 |
| 20260831194528 | 58 | 340 | 6.1 | 13.0 | 0.00 | 0.00 | 0.00 | 84 | 1021.8 |
| 20260831194036 | 58 | 14 | 5.2 | 13.0 | 0.00 | 0.00 | 0.00 | 84 | 1021.8 |
| 20260831194030 | 58 | 10 | 5.2 | 13.0 | 0.00 | 0.00 | 0.00 | 84 | 1021.8 |
| 20260831193529 | 58 | 75 | 5.2 | 13.0 | 0.00 | 0.00 | 0.00 | 84 | 1021.8 |
| 20260831193159 | 58 | 9 | 6.1 | 13.0 | 0.00 | 0.00 | 0.00 | 84 | 1021.8 |
| 20260831192530 | 58 | 338 | 6.1 | 13.0 | 0.00 | 0.00 | 0.00 | 84 | 1021.7 |
| 20260831191529 | 58 | 358 | 7.0 | 16.5 | 0.00 | 0.00 | 0.00 | 84 | 1021.7 |
| 20260831191030 | 58 | 17 | 6.1 | 16.5 | 0.00 | 0.00 | 0.00 | 85 | 1021.7 |
| 20260831190529 | 58 | 339 | 5.2 | 13.0 | 0.00 | 0.00 | 0.00 | 85 | 1021.8 |
| 20260831190030 | 58 | 0 | 5.2 | 13.0 | 0.00 | 0.00 | 0.00 | 86 | 1022.0 |
| 20260831185527 | 58 | 346 | 5.2 | 11.3 | 0.00 | 0.00 | 0.00 | 86 | 1022.0 |
| 20260831185028 | 58 | 349 | 6.1 | 15.6 | 0.00 | 0.00 | 0.00 | 86 | 1022.0 |
| 20260831184527 | 58 | 333 | 6.1 | 15.6 | 0.00 | 0.00 | 0.00 | 87 | 1022.0 |
| 20260831184029 | 58 | 9 | 6.1 | 13.9 | 0.00 | 0.00 | 0.00 | 87 | 1022.0 |
| 20260831183528 | 57 | 343 | 5.2 | 11.3 | 0.00 | 0.00 | 0.00 | 88 | 1022.1 |
| 20260831183027 | 57 | 336 | 4.3 | 10.4 | 0.00 | 0.00 | 0.00 | 89 | 1022.2 |
| 20260831182528 | 57 | 356 | 3.5 | 10.4 | 0.00 | 0.00 | 0.00 | 89 | 1022.3 |
| 20260831182036 | 56 | 6 | 3.5 | 11.3 | 0.00 | 0.00 | 0.00 | 90 | 1022.3 |
| 20260831182027 | 57 | 358 | 4.3 | 11.3 | 0.00 | 0.00 | 0.00 | 89 | 1022.3 |
| 20260831181028 | 56 | 337 | 2.6 | 7.0 | 0.00 | 0.00 | 0.00 | 90 | 1022.4 |
| 20260831180527 | 56 | 353 | 2.6 | 6.1 | 0.00 | 0.00 | 0.00 | 90 | 1022.5 |
| 20260831180028 | 56 | 6 | 2.6 | 4.3 | 0.00 | 0.00 | 0.00 | 90 | 1022.6 |
| 20260831175526 | 55 | 10 | 2.6 | 5.2 | 0.00 | 0.00 | 0.00 | 90 | 1022.6 |
| 20260831175029 | 55 | 355 | 2.6 | 7.0 | 0.00 | 0.00 | 0.00 | 90 | 1022.7 |
| 20260831174527 | 55 | 345 | 2.6 | 7.0 | 0.00 | 0.00 | 0.00 | 90 | 1022.7 |
| 20260831174034 | 55 | 346 | 1.7 | 4.3 | 0.00 | 0.00 | 0.00 | 90 | 1022.8 |
| 20260831174028 | 55 | 347 | 1.7 | 4.3 | 0.00 | 0.00 | 0.00 | 90 | 1022.7 |
| 20260831173028 | 55 | 345 | 1.7 | 4.3 | 0.00 | 0.00 | 0.00 | 90 | 1022.8 |
| 20260831172533 | 54 | 339 | 0.9 | 3.5 | 0.00 | 0.00 | 0.00 | 90 | 1023.0 |
| 20260831172527 | 55 | 345 | 1.7 | 7.0 | 0.00 | 0.00 | 0.00 | 90 | 1022.9 |
| 20260831172024 | 54 | 345 | 1.7 | 7.0 | 0.00 | 0.00 | 0.00 | 90 | 1022.9 |
| 20260831171026 | 54 | 339 | 1.7 | 4.3 | 0.00 | 0.00 | 0.00 | 90 | 1023.2 |
| 20260831170524 | 54 | 338 | 1.7 | 4.3 | 0.00 | 0.00 | 0.00 | 90 | 1023.2 |
| 20260831170025 | 54 | 339 | 1.7 | 4.3 | 0.00 | 0.00 | 0.00 | 90 | 1023.2 |
| 20260831165524 | 54 | 339 | 2.6 | 7.0 | 0.00 | 0.00 | 0.00 | 90 | 1023.3 |
| 20260831165022 | 54 | 338 | 2.6 | 7.0 | 0.00 | 0.00 | 0.00 | 90 | 1023.4 |
| 20260831164524 | 54 | 340 | 1.7 | 5.2 | 0.00 | 0.00 | 0.00 | 90 | 1023.4 |
| 20260831164022 | 54 | 339 | 0.9 | 4.3 | 0.00 | 0.00 | 0.00 | 90 | 1023.4 |
| 20260831163523 | 54 | 338 | 0.9 | 4.3 | 0.00 | 0.00 | 0.00 | 90 | 1023.5 |
| 20260831163024 | 54 | 337 | 0.9 | 4.3 | 0.00 | 0.00 | 0.00 | 90 | 1023.6 |
| 20260831162524 | 54 | 337 | 1.7 | 4.3 | 0.00 | 0.00 | 0.00 | 90 | 1023.7 |
| 20260831162023 | 54 | 338 | 1.7 | 4.3 | 0.00 | 0.00 | 0.00 | 90 | 1023.8 |
| 20260831161522 | 54 | 335 | 1.7 | 5.2 | 0.00 | 0.00 | 0.00 | 90 | 1024.0 |
| 20260831161022 | 53 | 330 | 0.9 | 5.2 | 0.00 | 0.00 | 0.00 | 90 | 1024.0 |
| 20260831160520 | 53 | 337 | 0.9 | 4.3 | 0.00 | 0.00 | 0.00 | 90 | 1023.9 |
| 20260831160020 | 53 | 335 | 0.9 | 4.3 | 0.00 | 0.00 | 0.00 | 90 | 1024.0 |
| 20260831155522 | 53 | 331 | 0.9 | 2.6 | 0.00 | 0.00 | 0.00 | 90 | 1024.1 |
| 20260831155020 | 53 | 331 | 0.9 | 2.6 | 0.00 | 0.00 | 0.00 | 90 | 1024.1 |
| 20260831154522 | 53 | 328 | 0.9 | 2.6 | 0.00 | 0.00 | 0.00 | 90 | 1024.2 |
| 20260831154022 | 53 | 326 | 0.9 | 2.6 | 0.00 | 0.00 | 0.00 | 89 | 1024.3 |
| 20260831153529 | 53 | 326 | 0.9 | 2.6 | 0.00 | 0.00 | 0.00 | 90 | 1024.4 |
| 20260831153522 | 53 | 326 | 0.9 | 2.6 | 0.00 | 0.00 | 0.00 | 89 | 1024.3 |
| 20260831152520 | 53 | 325 | 0.9 | 4.3 | 0.00 | 0.00 | 0.00 | 90 | 1024.4 |
| 20260831152022 | 53 | 325 | 0.9 | 4.3 | 0.00 | 0.00 | 0.00 | 90 | 1024.4 |
| 20260831151521 | 52 | 323 | 0.9 | 5.2 | 0.00 | 0.00 | 0.00 | 90 | 1024.5 |
| 20260831151022 | 52 | 322 | 0.9 | 5.2 | 0.00 | 0.00 | 0.00 | 90 | 1024.5 |
| 20260831150529 | 51 | 206 | 0.0 | 0.0 | 0.00 | 0.00 | 0.00 | 89 | 1024.6 |
| 20260831150521 | 52 | 264 | 0.0 | 2.6 | 0.00 | 0.00 | 0.00 | 90 | 1024.5 |
| 20260831150020 | 51 | 244 | 0.0 | 2.6 | 0.00 | 0.00 | 0.00 | 90 | 1024.6 |
| 20260831145025 | 51 | 206 | 0.0 | 0.0 | 0.00 | 0.00 | 0.00 | 89 | 1024.7 |
| 20260831144024 | 51 | 204 | 0.0 | 0.0 | 0.00 | 0.00 | 0.00 | 89 | 1025.0 |
| 20260831144018 | 51 | 204 | 0.0 | 0.0 | 0.00 | 0.00 | 0.00 | 89 | 1024.9 |
| 20260831143644 | 51 | 204 | 0.0 | 0.0 | 0.00 | 0.00 | 0.00 | 90 | 1025.0 |
| 20260831142527 | 51 | 204 | 0.0 | 0.0 | 0.00 | 0.00 | 0.00 | 89 | 1025.3 |
| 20260831142516 | 51 | 204 | 0.0 | 0.0 | 0.00 | 0.00 | 0.00 | 90 | 1025.1 |
| 20260831142018 | 51 | 204 | 0.0 | 0.0 | 0.00 | 0.00 | 0.00 | 90 | 1025.2 |
| 20260831141017 | 51 | 204 | 0.0 | 0.0 | 0.00 | 0.00 | 0.00 | 90 | 1025.4 |
| 20260831140522 | 51 | 204 | 0.0 | 0.0 | 0.00 | 0.00 | 0.00 | 90 | 1025.6 |
| 20260831140516 | 51 | 204 | 0.0 | 0.0 | 0.00 | 0.00 | 0.00 | 90 | 1025.5 |
| 20260831140031 | 51 | 204 | 0.0 | 0.0 | 0.00 | 0.00 | 0.00 | 90 | 1025.6 |
| 20260831140017 | 51 | 204 | 0.0 | 0.0 | 0.00 | 0.00 | 0.00 | 90 | 1025.6 |
| 20260831135016 | 50 | 204 | 0.0 | 0.0 | 0.00 | 0.00 | 0.00 | 90 | 1025.7 |
| 20260831134519 | 51 | 204 | 0.0 | 0.0 | 0.00 | 0.00 | 0.00 | 90 | 1025.8 |
| 20260831134016 | 50 | 204 | 0.0 | 0.0 | 0.00 | 0.00 | 0.00 | 89 | 1025.9 |
| 20260831133515 | 50 | 204 | 0.0 | 0.0 | 0.00 | 0.00 | 0.00 | 89 | 1025.9 |
| 20260831133017 | 51 | 204 | 0.0 | 0.0 | 0.00 | 0.00 | 0.00 | 89 | 1026.0 |
| 20260831132517 | 51 | 204 | 0.0 | 0.0 | 0.00 | 0.00 | 0.00 | 89 | 1026.1 |
| 20260831132020 | 51 | 204 | 0.0 | 0.0 | 0.00 | 0.00 | 0.00 | 89 | 1026.3 |
| 20260831132013 | 51 | 204 | 0.0 | 0.0 | 0.00 | 0.00 | 0.00 | 89 | 1026.2 |
| 20260831131011 | 51 | 204 | 0.0 | 0.0 | 0.00 | 0.00 | 0.00 | 89 | 1026.4 |
| 20260831130513 | 51 | 204 | 0.0 | 0.0 | 0.00 | 0.00 | 0.00 | 89 | 1026.4 |
| 20260831130013 | 51 | 204 | 0.0 | 0.0 | 0.00 | 0.00 | 0.00 | 89 | 1026.5 |
| 20260831125512 | 50 | 204 | 0.0 | 0.0 | 0.00 | 0.00 | 0.00 | 89 | 1026.6 |
| 20260831125021 | 50 | 204 | 0.0 | 0.0 | 0.00 | 0.00 | 0.00 | 88 | 1026.7 |
| 20260831125013 | 50 | 204 | 0.0 | 0.0 | 0.00 | 0.00 | 0.00 | 88 | 1026.6 |
| 20260831124012 | 51 | 204 | 0.0 | 0.0 | 0.00 | 0.00 | 0.00 | 88 | 1026.7 |
| 20260831123518 | 51 | 204 | 0.0 | 0.0 | 0.00 | 0.00 | 0.00 | 88 | 1026.9 |
| 20260831123511 | 51 | 204 | 0.0 | 0.0 | 0.00 | 0.00 | 0.00 | 88 | 1026.8 |
| 20260831122520 | 51 | 204 | 0.0 | 0.0 | 0.00 | 0.00 | 0.00 | 88 | 1026.9 |
| 20260831122512 | 51 | 204 | 0.0 | 0.0 | 0.00 | 0.00 | 0.00 | 88 | 1026.9 |
| 20260831121512 | 51 | 204 | 0.0 | 0.0 | 0.00 | 0.00 | 0.00 | 87 | 1027.0 |
| 20260831121013 | 51 | 204 | 0.0 | 0.0 | 0.00 | 0.00 | 0.00 | 87 | 1026.9 |
| 20260831120511 | 51 | 204 | 0.0 | 0.0 | 0.00 | 0.00 | 0.00 | 87 | 1027.0 |
| 20260831120013 | 51 | 204 | 0.0 | 0.0 | 0.00 | 0.00 | 0.00 | 87 | 1026.9 |
| 20260831115512 | 51 | 204 | 0.0 | 0.0 | 0.00 | 0.00 | 0.00 | 87 | 1026.9 |
| 20260831115013 | 51 | 204 | 0.0 | 0.0 | 0.00 | 0.00 | 0.00 | 87 | 1027.0 |
| 20260831114511 | 51 | 204 | 0.0 | 0.0 | 0.00 | 0.00 | 0.00 | 87 | 1027.0 |
| 20260831114013 | 51 | 204 | 0.0 | 0.0 | 0.00 | 0.00 | 0.00 | 86 | 1027.1 |
| 20260831113511 | 51 | 204 | 0.0 | 0.0 | 0.00 | 0.00 | 0.00 | 86 | 1027.1 |
| 20260831113012 | 51 | 204 | 0.0 | 0.0 | 0.00 | 0.00 | 0.00 | 86 | 1027.1 |
| 20260831112511 | 52 | 204 | 0.0 | 0.0 | 0.00 | 0.00 | 0.00 | 86 | 1027.2 |
| 20260831112012 | 52 | 204 | 0.0 | 0.0 | 0.00 | 0.00 | 0.00 | 86 | 1027.1 |
| 20260831111511 | 52 | 204 | 0.0 | 0.0 | 0.00 | 0.00 | 0.00 | 85 | 1027.1 |
| 20260831111012 | 52 | 204 | 0.0 | 0.0 | 0.00 | 0.00 | 0.00 | 85 | 1027.1 |
| 20260831110503 | 52 | 204 | 0.0 | 0.0 | 0.00 | 0.00 | 0.00 | 85 | 1027.1 |
| 20260831110005 | 52 | 204 | 0.0 | 0.0 | 0.00 | 0.00 | 0.00 | 84 | 1027.2 |
| 20260831105503 | 52 | 204 | 0.0 | 0.0 | 0.00 | 0.00 | 0.00 | 84 | 1027.3 |
| 20260831105003 | 53 | 204 | 0.0 | 0.0 | 0.00 | 0.00 | 0.00 | 84 | 1027.3 |
| 20260831104504 | 53 | 204 | 0.0 | 0.0 | 0.00 | 0.00 | 0.00 | 84 | 1027.3 |
| 20260831104004 | 53 | 204 | 0.0 | 0.0 | 0.00 | 0.00 | 0.00 | 84 | 1027.4 |
| 20260831103511 | 53 | 204 | 0.0 | 0.0 | 0.00 | 0.00 | 0.00 | 83 | 1027.4 |
| 20260831103505 | 53 | 204 | 0.0 | 0.0 | 0.00 | 0.00 | 0.00 | 83 | 1027.4 |
| 20260831103002 | 53 | 204 | 0.0 | 0.0 | 0.00 | 0.00 | 0.00 | 83 | 1027.4 |
| 20260831102002 | 53 | 204 | 0.0 | 0.0 | 0.00 | 0.00 | 0.00 | 83 | 1027.5 |
| 20260831101502 | 54 | 204 | 0.0 | 0.0 | 0.00 | 0.00 | 0.00 | 82 | 1027.5 |
| 20260831101002 | 54 | 204 | 0.0 | 0.0 | 0.00 | 0.00 | 0.00 | 82 | 1027.4 |
| 20260831100503 | 54 | 204 | 0.0 | 0.0 | 0.00 | 0.00 | 0.00 | 82 | 1027.4 |
| 20260831095959 | 54 | 204 | 0.0 | 0.0 | 0.00 | 0.00 | 0.00 | 81 | 1027.4 |
| 20260831095459 | 54 | 204 | 0.0 | 0.0 | 0.00 | 0.00 | 0.00 | 81 | 1027.4 |
| 20260831094958 | 55 | 204 | 0.0 | 0.0 | 0.00 | 0.00 | 0.00 | 81 | 1027.4 |
| 20260831094506 | 55 | 204 | 0.0 | 0.0 | 0.00 | 0.00 | 0.00 | 80 | 1027.5 |
| 20260831094500 | 55 | 204 | 0.0 | 0.0 | 0.00 | 0.00 | 0.00 | 80 | 1027.5 |
| 20260831093629 | 55 | 204 | 0.0 | 0.0 | 0.00 | 0.00 | 0.00 | 81 | 1027.6 |
| 20260831093505 | 55 | 204 | 0.0 | 0.0 | 0.00 | 0.00 | 0.00 | 81 | 1027.7 |
| 20260831093501 | 55 | 204 | 0.0 | 0.0 | 0.00 | 0.00 | 0.00 | 80 | 1027.6 |
| 20260831092000 | 55 | 204 | 0.0 | 0.0 | 0.00 | 0.00 | 0.00 | 80 | 1027.6 |
| 20260831091502 | 55 | 204 | 0.0 | 0.0 | 0.00 | 0.00 | 0.00 | 80 | 1027.6 |
| 20260831091125 | 56 | 204 | 0.0 | 0.0 | 0.00 | 0.00 | 0.00 | 80 | 1027.7 |
| 20260831090459 | 56 | 204 | 0.0 | 0.0 | 0.00 | 0.00 | 0.00 | 80 | 1027.7 |
| 20260831085500 | 56 | 204 | 0.0 | 0.0 | 0.00 | 0.00 | 0.00 | 80 | 1027.8 |
| 20260831085003 | 56 | 204 | 0.0 | 0.0 | 0.00 | 0.00 | 0.00 | 80 | 1027.8 |
| 20260831084959 | 56 | 204 | 0.0 | 0.0 | 0.00 | 0.00 | 0.00 | 80 | 1027.8 |
| 20260831083958 | 56 | 204 | 0.0 | 0.0 | 0.00 | 0.00 | 0.00 | 81 | 1027.8 |
| 20260831083457 | 56 | 204 | 0.0 | 0.0 | 0.00 | 0.00 | 0.00 | 81 | 1027.8 |
| 20260831082957 | 57 | 204 | 0.0 | 0.0 | 0.00 | 0.00 | 0.00 | 82 | 1027.8 |
| 20260831082457 | 57 | 204 | 0.0 | 0.0 | 0.00 | 0.00 | 0.00 | 82 | 1027.9 |
| 20260831082006 | 57 | 204 | 0.0 | 0.0 | 0.00 | 0.00 | 0.00 | 82 | 1027.8 |
| 20260831082000 | 57 | 204 | 0.0 | 0.0 | 0.00 | 0.00 | 0.00 | 82 | 1027.9 |
| 20260831080958 | 57 | 204 | 0.0 | 0.0 | 0.00 | 0.00 | 0.00 | 82 | 1027.9 |
| 20260831080458 | 57 | 204 | 0.0 | 0.0 | 0.00 | 0.00 | 0.00 | 83 | 1027.9 |
| 20260831075957 | 57 | 204 | 0.0 | 0.0 | 0.00 | 0.00 | 0.00 | 83 | 1027.9 |
| 20260831075458 | 57 | 204 | 0.0 | 0.0 | 0.00 | 0.00 | 0.00 | 83 | 1027.8 |
| 20260831075000 | 57 | 204 | 0.0 | 0.0 | 0.00 | 0.00 | 0.00 | 83 | 1027.9 |
| 20260831074502 | 58 | 204 | 0.0 | 0.0 | 0.00 | 0.00 | 0.00 | 82 | 1028.0 |
| 20260831074457 | 57 | 204 | 0.0 | 0.0 | 0.00 | 0.00 | 0.00 | 82 | 1027.9 |
| 20260831073457 | 58 | 204 | 0.0 | 0.0 | 0.00 | 0.00 | 0.00 | 82 | 1027.9 |
| 20260831072956 | 58 | 204 | 0.0 | 1.7 | 0.00 | 0.00 | 0.00 | 81 | 1027.9 |
| 20260831072623 | 58 | 204 | 0.9 | 2.6 | 0.00 | 0.00 | 0.00 | 80 | 1028.0 |
| 20260831072610 | 58 | 204 | 0.0 | 2.6 | 0.00 | 0.00 | 0.00 | 81 | 1028.0 |
| 20260831071500 | 58 | 204 | 0.9 | 2.6 | 0.00 | 0.00 | 0.00 | 79 | 1028.0 |
| 20260831071454 | 58 | 205 | 0.9 | 2.6 | 0.00 | 0.00 | 0.00 | 79 | 1028.0 |
| 20260831070456 | 59 | 204 | 0.9 | 3.5 | 0.00 | 0.00 | 0.00 | 78 | 1028.0 |
| 20260831070000 | 59 | 208 | 0.9 | 3.5 | 0.00 | 0.00 | 0.00 | 76 | 1028.1 |
| 20260831065954 | 59 | 206 | 0.9 | 3.5 | 0.00 | 0.00 | 0.00 | 77 | 1028.1 |
| 20260831065456 | 59 | 208 | 0.9 | 3.5 | 0.00 | 0.00 | 0.00 | 77 | 1028.1 |
| 20260831064456 | 60 | 213 | 0.9 | 3.5 | 0.00 | 0.00 | 0.00 | 76 | 1028.2 |
| 20260831063956 | 60 | 217 | 0.9 | 3.5 | 0.00 | 0.00 | 0.00 | 76 | 1028.2 |
| 20260831063456 | 59 | 212 | 0.9 | 2.6 | 0.00 | 0.00 | 0.00 | 77 | 1028.2 |
| 20260831062954 | 59 | 214 | 0.9 | 2.6 | 0.00 | 0.00 | 0.00 | 77 | 1028.2 |
| 20260831062450 | 59 | 215 | 0.9 | 3.5 | 0.00 | 0.00 | 0.00 | 77 | 1028.3 |
| 20260831061952 | 59 | 215 | 0.9 | 3.5 | 0.00 | 0.00 | 0.00 | 77 | 1028.4 |
| 20260831061451 | 59 | 220 | 0.9 | 2.6 | 0.00 | 0.00 | 0.00 | 77 | 1028.4 |
| 20260831060952 | 59 | 207 | 0.9 | 2.6 | 0.00 | 0.00 | 0.00 | 77 | 1028.4 |
| 20260831060448 | 58 | 185 | 1.7 | 4.3 | 0.00 | 0.00 | 0.00 | 77 | 1028.5 |
| 20260831055952 | 58 | 193 | 1.7 | 7.0 | 0.00 | 0.00 | 0.00 | 77 | 1028.6 |
| 20260831055448 | 58 | 202 | 1.7 | 7.0 | 0.00 | 0.00 | 0.00 | 76 | 1028.6 |
| 20260831054950 | 58 | 202 | 1.7 | 5.2 | 0.00 | 0.00 | 0.00 | 76 | 1028.7 |
| 20260831054448 | 58 | 239 | 1.7 | 4.3 | 0.00 | 0.00 | 0.00 | 76 | 1028.8 |
| 20260831053948 | 58 | 219 | 1.7 | 6.1 | 0.00 | 0.00 | 0.00 | 78 | 1028.8 |
| 20260831053446 | 58 | 195 | 1.7 | 6.1 | 0.00 | 0.00 | 0.00 | 78 | 1028.8 |
| 20260831052946 | 58 | 200 | 1.7 | 4.3 | 0.00 | 0.00 | 0.00 | 78 | 1028.8 |
| 20260831052444 | 58 | 201 | 1.7 | 4.3 | 0.00 | 0.00 | 0.00 | 78 | 1028.9 |
| 20260831051943 | 58 | 192 | 1.7 | 4.3 | 0.00 | 0.00 | 0.00 | 78 | 1028.9 |
| 20260831051442 | 58 | 161 | 1.7 | 3.5 | 0.00 | 0.00 | 0.00 | 78 | 1029.0 |
| 20260831050944 | 58 | 210 | 1.7 | 3.5 | 0.00 | 0.00 | 0.00 | 78 | 1029.0 |
| 20260831050444 | 58 | 213 | 1.7 | 3.5 | 0.00 | 0.00 | 0.00 | 78 | 1029.1 |
| 20260831045943 | 58 | 224 | 0.9 | 3.5 | 0.00 | 0.00 | 0.00 | 79 | 1029.2 |
| 20260831045442 | 57 | 224 | 1.7 | 5.2 | 0.00 | 0.00 | 0.00 | 80 | 1029.3 |
| 20260831044944 | 57 | 224 | 1.7 | 5.2 | 0.00 | 0.00 | 0.00 | 79 | 1029.5 |
| 20260831044443 | 57 | 214 | 1.7 | 6.1 | 0.00 | 0.00 | 0.00 | 79 | 1029.6 |
| 20260831043944 | 57 | 224 | 0.9 | 6.1 | 0.00 | 0.00 | 0.00 | 80 | 1029.7 |
| 20260831043441 | 57 | 194 | 0.9 | 4.3 | 0.00 | 0.00 | 0.00 | 80 | 1029.7 |
| 20260831042949 | 56 | 196 | 1.7 | 4.3 | 0.00 | 0.00 | 0.00 | 81 | 1029.9 |
| 20260831042945 | 56 | 191 | 1.7 | 4.3 | 0.00 | 0.00 | 0.00 | 81 | 1029.8 |
| 20260831041949 | 56 | 204 | 2.6 | 7.0 | 0.00 | 0.00 | 0.00 | 80 | 1030.1 |
| 20260831041944 | 56 | 197 | 1.7 | 7.0 | 0.00 | 0.00 | 0.00 | 82 | 1030.0 |
| 20260831040942 | 56 | 185 | 1.7 | 4.3 | 0.00 | 0.00 | 0.00 | 81 | 1030.2 |
| 20260831040444 | 56 | 197 | 1.7 | 5.2 | 0.00 | 0.00 | 0.00 | 82 | 1030.3 |
| 20260831035943 | 55 | 204 | 1.7 | 5.2 | 0.00 | 0.00 | 0.00 | 81 | 1030.3 |
| 20260831035448 | 56 | 191 | 2.6 | 7.0 | 0.00 | 0.00 | 0.00 | 80 | 1030.4 |
| 20260831035444 | 55 | 203 | 2.6 | 5.2 | 0.00 | 0.00 | 0.00 | 81 | 1030.3 |
| 20260831034444 | 56 | 211 | 1.7 | 7.0 | 0.00 | 0.00 | 0.00 | 80 | 1030.5 |
| 20260831033943 | 56 | 215 | 1.7 | 4.3 | 0.00 | 0.00 | 0.00 | 81 | 1030.6 |
| 20260831033442 | 56 | 206 | 1.7 | 4.3 | 0.00 | 0.00 | 0.00 | 81 | 1030.7 |
| 20260831032940 | 56 | 180 | 1.7 | 4.3 | 0.00 | 0.00 | 0.00 | 81 | 1030.8 |
| 20260831032440 | 55 | 185 | 1.7 | 4.3 | 0.00 | 0.00 | 0.00 | 81 | 1030.9 |
| 20260831031940 | 56 | 206 | 1.7 | 5.2 | 0.00 | 0.00 | 0.00 | 81 | 1031.0 |
| 20260831031440 | 55 | 185 | 1.7 | 5.2 | 0.00 | 0.00 | 0.00 | 82 | 1031.0 |
| 20260831030940 | 55 | 203 | 1.7 | 5.2 | 0.00 | 0.00 | 0.00 | 81 | 1031.0 |